Date String (YYYY-MM-DD hh:mm:ss) UTC,Instrument flags,Ambient pressure (hPa),Sample flow (lpm),Bypass flow (lpm),Sample temperature (°C),Ambient temperature (°C),ASC tube jacket temperature (°C),LED temperature (°C),Box temperature (°C),Sample RH (%),Span deviation,Mass concentration (μg/m³),Mass concentration (μg/m³),Mass concentration (μg/m³)
DateTimeUTC,F1_M11,P_M11,Q1_M11,Q2_M11,T1_M11,T2_M11,T3_M11,T4_M11,T5_M11,U1_M11,ZSPAN_M11,X2_M11,X0_M11,X1_M11
2023-03-13 12:00:00,,0825.8,4.99,0.00,22.6,22.3,00.0,31.2,24.5,12.0,-001.6,0005.07,0008.78,0004.82
2023-03-13 12:01:00,,0825.8,5.00,0.00,22.6,21.9,00.0,31.2,24.4,12.0,-001.8,0005.05,0008.78,0004.81
2023-03-13 12:02:00,,0825.8,5.00,0.00,22.6,21.7,00.0,31.3,24.4,12.0,-001.9,0005.03,0008.72,0004.82
2023-03-13 12:03:00,,0825.9,5.00,0.00,22.6,21.4,00.0,31.3,24.3,12.0,-002.1,0005.02,0008.73,0004.81
2023-03-13 12:04:00,,0825.9,5.02,0.00,22.6,21.3,00.0,31.3,24.3,12.0,-002.3,0005.03,0008.76,0004.81
2023-03-13 12:05:00,,0826.0,4.99,0.00,22.6,21.2,00.0,31.3,24.3,12.0,-002.5,0005.03,0008.70,0004.81
2023-03-13 12:06:00,,0825.9,5.00,0.00,22.5,21.1,00.0,31.3,24.3,12.0,-002.6,0005.05,0008.72,0004.82
2023-03-13 12:07:00,,0825.9,5.01,0.00,22.5,21.0,00.0,31.2,24.2,12.0,-002.7,0005.11,0008.87,0004.83
2023-03-13 12:08:00,,0826.0,5.01,0.00,22.5,20.9,00.0,31.2,24.2,11.9,-002.8,0005.12,0008.52,0004.83
2023-03-13 12:09:00,,0825.9,5.01,0.00,22.5,20.8,00.0,31.2,24.2,11.9,-002.9,0005.12,0007.58,0004.85
2023-03-13 12:10:00,,0825.9,5.01,0.00,22.4,20.8,00.0,31.2,24.1,11.9,-003.5,0005.10,0007.49,0004.85
2023-03-13 12:11:00,,0825.9,5.00,0.00,22.4,20.7,00.0,31.2,24.1,11.9,-003.3,0005.14,0007.59,0004.87
2023-03-13 12:12:00,,0826.0,5.02,0.00,22.4,20.7,00.0,31.2,24.1,11.9,-003.2,0005.17,0007.62,0004.88
2023-03-13 12:13:00,,0826.0,4.99,0.00,22.4,20.9,00.0,31.2,24.1,11.9,-003.2,0005.19,0007.72,0004.89
2023-03-13 12:14:00,,0826.0,5.01,0.00,22.5,21.9,00.0,31.2,24.3,11.8,-003.2,0005.20,0007.73,0004.90
2023-03-13 12:15:00,,0826.0,4.99,0.00,22.6,22.9,00.0,31.2,24.6,11.7,-002.9,0005.21,0007.69,0004.92
2023-03-13 12:16:00,,0826.0,5.01,0.00,22.7,23.1,00.0,31.2,24.7,11.6,-002.8,0005.23,0007.94,0004.93
2023-03-13 12:17:00,,0826.0,4.97,0.00,22.7,22.6,00.0,31.2,24.6,11.6,-002.8,0005.24,0008.17,0004.93
2023-03-13 12:18:00,,0826.0,5.01,0.00,22.7,22.2,00.0,31.3,24.5,11.6,-002.8,0005.22,0008.19,0004.94
2023-03-13 12:19:00,,0826.0,5.00,0.00,22.7,21.9,00.0,31.3,24.4,11.6,-002.6,0005.22,0008.18,0004.96
2023-03-13 12:20:00,,0826.0,5.00,0.00,22.6,21.6,00.0,31.3,24.4,11.6,-002.7,0005.24,0008.18,0004.97
2023-03-13 12:21:00,,0826.0,5.01,0.00,22.6,21.4,00.0,31.3,24.3,11.7,-002.3,0005.26,0008.49,0004.99
2023-03-13 12:22:00,,0826.0,5.01,0.00,22.6,21.2,00.0,31.3,24.3,11.7,-002.1,0005.26,0008.71,0004.99
2023-03-13 12:23:00,,0826.0,4.99,0.00,22.6,21.1,00.0,31.3,24.3,11.7,-002.1,0005.28,0008.74,0005.00
2023-03-13 12:24:00,,0826.0,5.00,0.00,22.6,21.0,00.0,31.3,24.2,11.7,-002.0,0005.30,0008.70,0005.01
2023-03-13 12:25:00,,0826.0,5.00,0.00,22.5,20.9,00.0,31.3,24.2,11.7,-001.6,0005.34,0008.77,0005.03
2023-03-13 12:26:00,,0826.0,5.01,0.00,22.5,20.9,00.0,31.3,24.2,11.7,-001.4,0005.33,0008.73,0005.04
2023-03-13 12:27:00,,0826.0,5.01,0.00,22.5,20.8,00.0,31.3,24.2,11.7,-001.0,0005.31,0008.48,0005.04
2023-03-13 12:28:00,,0826.0,5.00,0.00,22.4,20.8,00.0,31.2,24.2,11.7,-001.1,0005.32,0008.29,0005.06
2023-03-13 12:29:00,,0826.0,4.99,0.00,22.4,20.7,00.0,31.2,24.1,11.7,-000.8,0005.32,0008.28,0005.05
2023-03-13 12:30:00,,0826.0,5.00,0.00,22.4,20.7,00.0,31.2,24.1,11.7,-000.7,0005.32,0008.71,0005.05
2023-03-13 12:31:00,,0825.9,5.02,0.00,22.4,21.2,00.0,31.2,24.2,11.7,-000.5,0005.31,0008.71,0005.05
2023-03-13 12:32:00,,0825.9,4.99,0.00,22.5,22.3,00.0,31.2,24.4,11.7,-000.7,0005.33,0008.50,0005.05
2023-03-13 12:33:00,,0825.9,4.99,0.00,22.6,23.1,00.0,31.2,24.6,11.7,-000.5,0005.36,0008.27,0005.06
2023-03-13 12:34:00,,0825.9,4.99,0.00,22.7,22.9,00.0,31.3,24.6,11.7,-000.3,0005.35,0008.23,0005.09
2023-03-13 12:35:00,,0825.9,5.01,0.00,22.7,22.4,00.0,31.3,24.5,11.7,-000.0,0005.38,0008.27,0005.11
2023-03-13 12:36:00,,0825.9,5.00,0.00,22.7,22.1,00.0,31.3,24.5,11.7,0000.3,0005.41,0008.39,0005.12
2023-03-13 12:37:00,,0825.9,4.99,0.00,22.7,21.8,00.0,31.3,24.4,11.7,-000.3,0005.43,0008.43,0005.14
2023-03-13 12:38:00,,0825.9,4.98,0.00,22.6,21.5,00.0,31.3,24.4,11.7,-000.5,0005.48,0008.55,0005.16
2023-03-13 12:39:00,,0825.9,4.98,0.00,22.6,21.3,00.0,31.3,24.3,11.7,0000.2,0005.51,0008.61,0005.18
2023-03-13 12:40:00,,0825.9,5.03,0.00,22.6,21.1,00.0,31.3,24.3,11.8,0000.5,0005.55,0008.57,0005.21
2023-03-13 12:41:00,,0826.0,4.96,0.00,22.6,21.0,00.0,31.3,24.2,11.8,0000.8,0005.60,0008.30,0005.24
2023-03-13 12:42:00,,0825.9,5.00,0.00,22.5,20.9,00.0,31.3,24.2,11.9,0001.0,0005.64,0008.37,0005.27
2023-03-13 12:43:00,,0825.9,5.00,0.00,22.5,20.7,00.0,31.3,24.1,11.9,0000.6,0005.68,0008.44,0005.30
2023-03-13 12:44:00,,0826.0,5.01,0.00,22.4,20.6,00.0,31.3,24.1,12.0,-000.1,0005.69,0008.50,0005.30
2023-03-13 12:45:00,,0826.0,5.01,0.00,22.4,20.5,00.0,31.2,24.0,12.0,-000.1,0005.68,0008.48,0005.30
2023-03-13 12:46:00,,0826.0,5.01,0.00,22.4,20.5,00.0,31.2,24.0,12.0,0000.2,0005.66,0008.44,0005.30
2023-03-13 12:47:00,,0826.0,5.00,0.00,22.4,21.1,00.0,31.2,24.2,12.0,0000.5,0005.64,0008.31,0005.30
2023-03-13 12:48:00,,0826.0,4.99,0.00,22.5,22.2,00.0,31.2,24.4,12.0,0001.1,0005.68,0008.42,0005.32
2023-03-13 12:49:00,,0825.9,4.98,0.00,22.6,22.9,00.0,31.2,24.6,11.9,0001.1,0005.67,0008.43,0005.33
2023-03-13 12:50:00,,0825.9,4.99,0.00,22.7,22.7,00.0,31.2,24.6,11.8,0000.5,0005.67,0008.68,0005.34
2023-03-13 12:51:00,,0826.0,5.02,0.00,22.7,22.3,00.0,31.3,24.5,11.8,0000.5,0005.66,0008.72,0005.34
2023-03-13 12:52:00,,0826.0,5.00,0.00,22.7,21.9,00.0,31.3,24.4,11.8,0000.6,0005.65,0008.58,0005.35
2023-03-13 12:53:00,,0826.0,4.99,0.00,22.6,21.7,00.0,31.3,24.4,11.8,0000.4,0005.64,0008.52,0005.35
2023-03-13 12:54:00,,0826.0,5.00,0.00,22.6,21.4,00.0,31.3,24.3,11.8,0000.7,0005.62,0008.61,0005.35
2023-03-13 12:55:00,,0826.0,5.01,0.00,22.6,21.2,00.0,31.3,24.3,11.8,0000.8,0005.62,0008.55,0005.37
2023-03-13 12:56:00,,0825.9,5.02,0.00,22.6,21.1,00.0,31.3,24.3,11.8,0000.5,0005.65,0008.93,0005.38
2023-03-13 12:57:00,,0826.0,5.01,0.00,22.5,21.0,00.0,31.3,24.2,11.8,-000.1,0005.66,0009.36,0005.39
2023-03-13 12:58:00,,0826.0,4.98,0.00,22.5,20.9,00.0,31.3,24.2,11.8,-000.5,0005.69,0009.89,0005.41
2023-03-13 12:59:00,,0826.1,5.01,0.00,22.5,20.8,00.0,31.3,24.2,11.8,-000.8,0005.69,0010.25,0005.42
